Date,TemperatureHighF,TemperatureAvgF,TemperatureLowF,DewpointHighF,DewpointAvgF,DewpointLowF,HumidityHigh,HumidityAvg,HumidityLow,PressureMaxIn,PressureMinIn,WindSpeedMaxMPH,WindSpeedAvgMPH,GustSpeedMaxMPH,PrecipitationSumIn
2013-1-1,52,47,43,39,34,29,81,63,43,30.09,30.03,19,7,19,0.00
2013-1-2,56,48,41,38,35,32,79,63,43,30.06,29.94,11,4,11,0.00
2013-1-3,56,47,42,42,38,35,86,69,51,30.09,30.00,13,4,13,0.00
2013-1-4,58,49,43,41,37,34,83,63,43,30.12,30.00,10,3,10,0.00
2013-1-5,52,48,45,49,44,38,98,85,72,30.09,29.88,7,2,7,0.20
2013-1-6,51,48,45,48,43,40,96,84,67,30.03,29.85,20,4,20,0.09
2013-1-7,59,50,44,52,47,42,98,89,73,30.06,29.94,8,2,8,0.00
2013-1-8,60,52,47,50,46,44,94,80,59,30.03,29.88,11,3,11,0.00
2013-1-9,53,49,46,51,43,35,97,82,64,29.91,29.76,33,8,33,0.00
2013-1-10,50,46,43,35,32,27,72,58,41,29.97,29.85,24,10,24,0.00
2013-1-11,50,46,42,40,34,28,81,65,49,30.03,29.85,25,7,25,0.00
2013-1-12,52,45,41,38,31,24,82,58,38,30.03,29.91,11,3,11,0.00
2013-1-13,50,44,38,34,24,17,63,45,31,30.06,29.97,22,4,22,0.00
2013-1-14,50,45,38,31,20,15,60,38,30,30.21,30.03,24,6,24,0.00
2013-1-15,53,46,39,34,30,25,72,54,36,30.27,30.15,12,3,12,0.00
2013-1-16,58,48,40,38,34,31,76,59,40,30.24,30.00,10,2,10,0.00
2013-1-17,63,52,42,37,33,31,70,51,35,30.03,29.85,9,3,9,0.00
2013-1-18,64,54,47,38,34,30,70,48,34,29.97,29.85,10,3,10,0.00
2013-1-19,55,52,50,35,33,31,52,47,40,29.97,29.91,6,2,6,0.00
2013-1-20,63,53,45,42,34,29,74,49,32,29.94,29.88,10,3,10,0.00
2013-1-21,63,53,45,41,36,31,71,54,38,29.91,29.82,10,3,10,0.00
2013-1-22,62,54,46,41,39,37,77,58,42,29.88,29.74,9,2,9,0.00
2013-1-23,55,52,50,50,45,40,97,78,59,29.85,29.71,9,2,9,0.12
2013-1-24,58,54,50,52,50,49,96,88,76,29.94,29.82,9,3,9,0.00
2013-1-25,64,55,52,56,52,50,97,90,67,29.94,29.76,15,3,15,0.00
2013-1-26,54,51,49,51,45,39,98,79,58,29.85,29.74,27,13,27,0.00
2013-1-27,54,49,45,41,37,30,77,63,47,29.94,29.85,24,9,24,0.00
2013-1-28,56,50,46,43,39,35,86,67,51,30.06,29.94,24,9,24,0.00
2013-1-29,57,51,46,46,42,38,88,73,57,30.15,30.00,19,6,19,0.00
2013-1-30,66,54,49,48,45,41,89,71,44,30.06,30.00,11,4,11,0.00
2013-1-31,64,58,53,49,44,41,73,60,46,30.03,29.91,9,2,9,0.00
2013-2-1,66,55,48,48,44,42,98,70,43,29.97,29.85,15,4,15,0.00
2013-2-2,55,49,48,53,48,47,98,98,93,30.06,29.97,15,6,15,0.00
2013-2-4,59,48,47,48,46,44,98,93,80,29.94,29.82,18,10,18,0.00
2013-2-5,53,50,48,49,45,40,96,84,74,29.91,29.79,23,10,23,0.00
2013-2-6,56,50,44,48,43,38,93,80,54,29.94,29.85,24,6,24,0.00
2013-2-7,53,49,43,48,44,36,96,83,56,29.94,29.76,23,5,23,0.21
2013-2-8,52,47,42,42,37,25,94,71,37,29.82,29.74,20,7,20,0.16
2013-2-9,58,50,46,39,31,24,68,48,29,29.88,29.79,13,6,13,0.13
2013-2-10,61,50,42,45,38,28,89,66,37,29.91,29.82,13,4,13,0.13
2013-2-11,64,53,48,48,36,27,94,57,29,30.03,29.85,20,8,20,0.13
2013-2-12,62,50,45,48,45,39,98,84,46,30.15,30.03,15,6,15,0.13
2013-2-13,59,48,45,56,47,44,98,95,71,30.09,29.97,20,5,20,0.13
2013-2-14,68,56,46,55,45,40,98,72,37,30.03,29.91,11,4,11,0.13
2013-2-15,72,61,52,45,41,38,73,49,32,30.03,29.91,10,3,10,0.13
2013-2-16,68,56,49,49,45,38,97,67,41,29.97,29.79,21,7,21,0.00
2013-2-17,60,51,47,50,46,40,98,84,54,29.82,29.74,20,8,20,0.13
2013-2-18,51,48,47,46,41,35,94,75,60,29.82,29.74,20,10,20,0.13
2013-2-19,48,46,42,44,39,30,92,76,56,29.76,29.47,30,10,30,0.54
2013-2-20,56,48,40,41,36,30,76,65,46,29.85,29.62,23,6,23,0.54
2013-2-21,56,50,45,43,36,29,83,62,37,29.94,29.82,24,7,24,0.00
2013-2-22,58,50,44,47,42,38,88,75,49,30.03,29.91,22,5,22,0.04
2013-2-23,55,50,47,49,39,28,98,66,40,30.00,29.88,24,10,24,0.05
2013-2-24,61,52,48,44,32,24,87,49,31,30.03,29.94,23,9,23,0.00
2013-2-25,59,51,45,48,44,42,92,78,60,30.06,29.88,17,7,17,0.00
2013-2-26,62,52,47,44,37,25,85,62,26,29.97,29.88,21,8,21,0.00
2013-2-27,60,49,46,48,44,37,97,83,49,30.12,29.97,20,5,20,0.00
2013-2-28,59,52,48,55,50,48,98,93,76,30.18,30.09,23,8,23,0.00
2013-3-1,71,56,47,60,50,45,98,83,45,30.18,29.91,15,4,15,0.00
2013-3-2,68,56,50,55,50,48,98,81,54,29.97,29.79,20,6,20,0.00
2013-3-3,55,50,48,50,48,45,98,92,80,29.85,29.79,26,14,26,0.00
2013-3-4,54,48,46,46,44,41,95,85,66,29.91,29.82,24,7,24,0.00
2013-3-5,56,50,44,46,41,39,88,73,57,29.85,29.59,35,6,35,1.14
2013-3-6,54,51,47,49,42,38,92,73,55,29.79,29.59,34,7,34,1.05
2013-3-7,57,49,45,46,42,36,95,78,51,29.76,29.59,17,4,17,0.04
2013-3-8,53,49,47,47,43,41,95,80,67,29.79,29.59,42,14,42,0.33
2013-3-9,60,52,45,47,43,39,94,74,49,30.06,29.79,24,8,24,0.33
2013-3-10,64,52,47,53,47,40,95,82,47,30.12,30.00,20,6,20,0.33
2013-3-11,69,53,46,55,47,42,98,84,43,30.03,29.82,22,6,22,0.33
2013-3-12,65,51,47,61,49,46,98,92,69,29.88,29.79,23,8,23,0.33
2013-3-13,74,53,45,66,50,45,98,89,46,29.91,29.79,20,7,20,0.33
2013-3-14,55,50,46,52,48,46,98,93,78,29.91,29.82,23,11,23,0.00
2013-3-15,67,53,48,55,49,48,98,89,61,29.91,29.79,26,9,26,0.00
2013-3-16,61,52,47,58,48,45,98,86,65,29.88,29.79,27,8,27,0.00
2013-3-17,62,53,48,46,44,40,87,73,48,29.91,29.79,26,9,26,0.00
2013-3-18,60,51,47,49,45,43,94,81,56,29.85,29.76,24,7,24,0.00
2013-3-20,60,55,50,55,52,48,98,92,68,29.88,29.82,15,6,15,0.04
2013-3-21,58,51,44,49,42,36,98,73,49,29.88,29.74,24,8,24,0.00
2013-3-22,61,53,47,45,37,24,87,58,26,29.85,29.74,23,8,23,0.00
2013-3-23,67,54,48,44,39,30,85,60,30,29.85,29.76,20,7,20,0.00
2013-3-24,58,50,47,47,45,43,94,83,63,29.82,29.68,24,10,24,0.00
2013-3-25,52,49,47,46,44,41,94,83,69,29.79,29.68,24,11,24,0.00
2013-3-26,56,51,48,48,45,43,93,81,64,29.76,29.68,23,10,23,0.00
2013-3-27,60,54,49,54,50,47,96,87,74,29.76,29.68,16,4,16,0.00
2013-3-28,64,56,53,56,53,49,98,88,62,29.82,29.74,18,6,18,0.00
2013-3-29,74,56,50,59,52,49,98,89,46,29.82,29.74,21,7,21,0.00
2013-3-30,67,56,51,57,52,48,98,87,52,29.79,29.68,16,6,16,0.08
2013-3-31,65,58,54,56,53,50,95,83,67,29.79,29.71,17,4,17,0.25
2013-4-1,59,56,52,55,53,50,98,92,72,29.88,29.76,17,3,17,0.29
2013-4-2,57,52,49,53,50,48,98,94,81,29.94,29.79,26,10,26,0.29
2013-4-3,73,53,48,60,50,48,98,92,48,29.91,29.71,27,7,27,0.29
2013-4-4,64,56,50,58,54,49,98,93,78,29.85,29.74,15,5,15,0.41
2013-4-5,60,56,52,57,53,50,98,92,71,29.91,29.85,18,6,18,0.29
2013-4-6,59,55,52,57,53,50,98,94,82,29.94,29.85,19,7,19,0.29
2013-4-7,60,55,52,55,51,45,98,87,70,29.91,29.59,40,8,40,0.29
2013-4-8,59,53,49,49,40,30,85,62,35,29.76,29.59,50,21,50,4.61
2013-4-9,69,62,57,47,37,30,67,40,31,29.82,29.74,29,12,29,2.71
2013-4-10,70,61,50,51,46,39,98,61,40,29.88,29.71,28,11,28,2.71
2013-4-11,65,53,49,51,47,43,98,80,48,29.76,29.53,29,12,29,2.71
2013-4-12,58,52,47,49,47,45,96,84,68,29.65,29.56,26,10,26,2.71
2013-4-13,59,52,48,48,44,40,93,75,56,29.65,29.56,31,11,31,0.00
2013-4-14,58,51,47,46,40,36,94,68,45,29.68,29.59,38,12,38,0.09
2013-4-15,58,49,46,49,39,34,98,70,46,29.71,29.56,52,17,52,7.51
2013-4-16,72,55,41,41,36,31,73,52,30,29.91,29.71,26,9,26,0.00
2013-4-17,76,62,49,42,33,28,77,35,23,30.03,29.91,32,14,32,0.00
2013-4-18,84,59,48,48,43,38,85,61,27,30.00,29.91,23,9,23,0.00
2013-4-19,83,56,47,56,47,44,93,76,34,29.97,29.79,25,7,25,0.00
2013-4-20,77,56,49,54,47,42,95,74,29,29.82,29.71,24,11,24,0.00
2013-4-21,84,61,49,54,47,43,91,64,30,29.76,29.62,19,8,19,0.09
2013-4-22,93,65,52,53,47,43,89,56,19,29.68,29.53,24,7,24,0.00
2013-4-23,75,58,49,49,43,30,96,63,22,29.62,29.56,30,11,30,0.00
2013-4-24,56,49,47,51,48,46,98,93,77,29.68,29.56,28,7,28,0.00
2013-4-25,59,54,52,51,49,46,97,82,69,29.88,29.68,21,8,21,0.00
2013-4-26,56,52,49,48,47,46,94,84,72,30.00,29.85,28,10,28,0.00
2013-4-27,55,50,48,51,48,47,98,94,78,30.00,29.82,31,11,31,0.00
2013-4-28,63,56,49,52,49,46,97,79,55,29.85,29.59,22,9,22,0.00
2013-4-29,73,60,52,57,50,47,87,70,45,29.62,29.47,27,10,27,0.00
2013-4-30,70,57,50,49,46,33,92,69,26,29.56,29.50,23,11,23,0.00
2013-5-1,74,65,54,51,38,28,89,44,21,29.79,29.56,25,11,25,0.00
2013-5-2,88,69,57,54,40,30,78,40,18,29.85,29.74,17,6,17,0.00
2013-5-3,78,64,53,52,44,32,90,51,30,29.76,29.47,24,9,24,0.00
2013-5-4,67,59,53,53,50,47,96,74,54,29.47,29.23,26,9,26,0.00
2013-5-5,67,60,55,51,48,45,74,64,49,29.50,29.29,20,5,20,0.00
2013-5-6,68,63,57,52,50,45,84,61,48,29.68,29.56,17,5,17,0.00
2013-5-7,65,58,52,55,53,51,98,83,63,29.74,29.65,20,8,20,0.00
2013-5-8,58,54,52,52,51,49,98,90,75,29.85,29.74,25,9,25,0.00
2013-5-9,57,53,51,50,49,48,93,85,74,29.91,29.79,27,12,27,0.00
2013-5-10,55,52,50,52,51,49,98,96,87,29.94,29.85,28,12,28,0.00
2013-5-11,66,54,35,61,51,31,98,92,68,29.91,29.76,27,9,27,0.00
2013-5-12,60,55,52,56,53,51,98,93,75,29.88,29.74,30,12,30,0.00
2013-5-13,59,55,51,55,52,49,98,91,74,29.82,29.68,30,13,30,0.00
2013-5-14,59,55,52,54,49,45,97,80,67,29.71,29.62,36,14,36,0.00
2013-5-15,58,52,50,52,48,46,98,86,67,29.76,29.71,31,14,31,0.00
2013-5-16,60,55,52,57,53,50,98,94,79,29.76,29.68,29,13,29,0.00
2013-5-17,59,54,51,51,49,46,95,83,63,29.79,29.71,28,12,28,0.00
2013-5-18,65,56,50,51,49,45,95,78,51,29.85,29.76,26,10,26,0.00
2013-5-19,67,58,51,56,49,46,95,75,49,29.82,29.65,26,10,26,0.00
2013-5-20,78,59,51,59,51,43,92,76,30,29.71,29.62,26,7,26,0.00
2013-5-21,60,54,50,50,46,39,94,75,58,29.71,29.62,37,16,37,1.33
2013-5-22,57,53,48,43,35,27,79,51,36,29.76,29.62,31,10,31,0.00
2013-5-23,59,54,48,45,42,38,84,67,49,29.71,29.65,24,10,24,0.00
2013-5-24,59,54,49,47,45,41,87,70,51,29.74,29.65,30,14,30,0.00
2013-5-25,57,52,48,51,47,45,98,84,66,29.76,29.68,34,14,34,0.04
2013-5-26,59,55,51,54,52,50,98,91,75,29.85,29.76,30,13,30,0.00
2013-5-27,57,56,56,56,56,55,98,97,93,29.85,29.74,15,6,15,0.09
2013-5-28,61,56,54,60,54,52,98,94,73,29.74,29.65,26,9,26,0.00
2013-5-29,62,57,52,55,51,47,98,83,62,29.71,29.62,24,10,24,0.00
2013-5-30,63,56,50,50,48,44,97,75,52,29.71,29.65,24,10,24,0.00
2013-5-31,71,56,50,55,49,46,91,79,42,29.71,29.59,28,8,28,0.00
2013-6-1,69,58,50,53,48,46,91,72,50,29.65,29.44,26,12,26,0.00
2013-6-2,58,53,50,51,50,49,98,89,73,29.50,29.38,31,13,31,0.00
2013-6-3,66,56,51,56,51,49,96,83,57,29.56,29.44,30,9,30,0.00
2013-6-4,62,56,53,53,52,51,98,86,70,29.68,29.56,26,10,26,0.00
2013-6-5,59,54,52,52,50,49,96,86,73,29.74,29.62,27,9,27,0.00
2013-6-6,60,54,51,53,51,49,98,89,70,29.68,29.56,27,10,27,0.00
2013-6-7,68,57,52,64,53,50,98,88,68,29.62,29.41,26,8,26,0.00
2013-6-8,63,58,52,57,53,50,98,83,70,29.50,29.41,32,12,32,0.00
2013-6-9,63,58,56,56,55,54,98,91,74,29.59,29.50,23,9,23,0.00
2013-6-10,67,59,55,55,52,50,98,80,58,29.65,29.53,23,7,23,0.00
2013-6-11,63,57,54,54,52,49,95,83,66,29.71,29.59,22,9,22,0.00
2013-6-12,63,55,52,51,50,47,93,83,58,29.71,29.62,32,10,32,0.00
2013-6-13,64,57,51,51,48,46,91,75,55,29.79,29.71,23,11,23,0.00
2013-6-14,73,58,52,57,50,30,94,76,46,29.71,29.53,29,11,29,0.00
2013-6-15,55,52,50,52,50,49,98,93,84,29.76,29.56,30,12,30,0.00
2013-6-16,60,54,51,52,51,50,98,88,74,29.85,29.74,30,14,30,0.00
2013-6-17,62,56,51,56,53,50,98,91,77,29.85,29.76,30,15,30,0.00
2013-6-18,60,56,53,54,53,51,98,89,75,29.79,29.71,32,15,32,0.12
2013-6-19,65,58,52,52,49,45,96,73,51,29.76,29.71,29,11,29,0.00
2013-6-20,65,57,51,51,49,46,94,75,51,29.74,29.65,30,12,30,0.00
2013-6-21,65,56,51,54,50,47,98,82,56,29.71,29.62,32,12,32,0.00
2013-6-22,67,58,51,55,51,48,98,81,58,29.68,29.56,30,12,30,0.00
2013-6-23,62,57,53,61,56,52,98,98,98,29.65,29.56,28,9,28,0.00
2013-6-24,62,57,54,61,56,53,98,97,90,29.65,29.53,13,6,13,0.04
2013-6-25,70,65,62,65,62,57,98,90,78,29.74,29.65,13,4,13,0.08
2013-6-26,71,65,59,68,61,59,98,88,71,29.76,29.68,20,6,20,0.00
2013-6-27,70,63,57,67,58,56,98,85,63,29.76,29.68,25,10,25,0.00
2013-6-28,74,63,56,66,57,55,98,83,61,29.74,29.56,28,12,28,0.00
2013-6-29,72,63,58,56,54,53,89,75,53,29.62,29.56,22,10,22,0.00
2013-7-2,66,60,57,58,57,56,98,90,73,29.65,29.56,33,16,33,0.00
2013-7-3,70,61,56,63,57,56,98,88,63,29.62,29.44,29,10,29,0.00
2013-7-4,66,62,58,61,56,49,98,80,60,29.47,29.38,29,12,29,0.00
2013-7-6,62,58,55,54,52,51,95,81,70,29.56,29.44,26,12,26,0.00
2013-7-7,63,58,54,56,53,52,96,86,70,29.59,29.50,26,9,26,0.00
2013-7-8,63,58,54,56,54,52,98,87,71,29.68,29.56,24,9,24,0.00
2013-7-9,63,56,52,62,54,52,98,92,73,29.76,29.62,29,12,29,0.00
2013-7-10,61,55,52,57,54,52,98,94,80,29.71,29.59,27,11,27,0.00
2013-7-11,58,54,51,54,52,51,98,93,79,29.71,29.59,26,9,26,0.00
2013-7-12,60,56,53,54,52,51,96,88,76,29.68,29.56,29,12,29,0.00
2013-7-13,64,57,52,55,53,51,98,88,67,29.68,29.59,26,12,26,0.00
2013-7-14,59,55,52,54,53,52,98,93,79,29.74,29.62,29,11,29,0.00
2013-7-15,60,55,51,55,52,50,98,92,75,29.68,29.56,24,8,24,0.00
2013-7-16,64,58,54,57,54,52,98,88,68,29.76,29.59,18,6,18,0.00
2013-7-17,62,58,54,57,55,53,98,91,77,29.82,29.74,27,9,27,0.00
2013-7-18,54,54,53,54,53,52,98,98,98,29.79,29.76,12,5,12,0.00
2013-7-19,59,55,53,54,53,52,98,93,83,29.68,29.56,22,9,22,0.00
2013-7-20,61,54,52,54,52,51,98,93,75,29.59,29.47,31,12,31,0.00
2013-7-21,61,55,52,55,53,51,98,93,78,29.62,29.50,26,12,26,0.00
2013-7-22,61,57,54,59,56,53,98,96,84,29.68,29.62,24,10,24,0.00
2013-7-23,64,59,55,63,56,55,98,91,75,29.74,29.65,22,9,22,0.00
2013-7-24,64,58,54,60,55,53,98,92,73,29.71,29.59,27,11,27,0.00
2013-7-25,61,55,52,57,54,52,98,94,80,29.76,29.65,25,10,25,0.00
2013-7-26,61,56,53,57,55,53,98,94,82,29.82,29.71,24,9,24,0.00
2013-7-27,61,56,54,57,55,53,98,95,81,29.76,29.59,23,9,23,0.00
2013-7-28,59,56,54,56,54,53,98,93,80,29.62,29.53,28,10,28,0.00
2013-7-29,63,58,54,55,54,52,98,87,70,29.74,29.56,23,10,23,0.00
2013-7-30,61,57,53,54,54,53,98,89,75,29.85,29.74,25,10,25,0.00
2013-7-31,61,56,53,56,53,52,98,89,76,29.85,29.74,29,11,29,0.00
2013-8-1,61,58,55,55,54,51,96,87,73,29.79,29.71,29,13,29,0.00
2013-8-2,61,56,52,55,53,51,98,92,73,29.74,29.62,29,12,29,0.00
2013-8-3,62,56,52,55,53,51,98,92,73,29.74,29.65,28,10,28,0.00
2013-8-4,59,55,53,55,53,51,98,93,76,29.79,29.71,28,9,28,0.00
2013-8-5,59,56,53,55,54,51,98,93,80,29.79,29.68,21,8,21,0.00
2013-8-6,61,57,53,57,54,52,98,90,73,29.79,29.74,26,8,26,0.00
2013-8-7,65,60,56,58,56,53,98,88,68,29.85,29.76,17,6,17,0.00
2013-8-8,61,57,55,60,56,54,98,97,87,29.79,29.65,21,6,21,0.04
2013-8-9,63,58,54,58,56,54,98,93,76,29.74,29.65,22,8,22,0.04
2013-8-10,63,59,56,58,56,55,98,93,76,29.79,29.74,29,9,29,0.04
2013-8-11,59,56,54,57,55,54,98,97,86,29.79,29.68,29,11,29,0.04
2013-8-12,64,58,54,59,55,54,98,91,73,29.76,29.68,26,9,26,0.04
2013-8-13,69,60,56,60,55,52,98,84,58,29.74,29.62,32,10,32,0.00
2013-8-14,63,61,60,61,60,59,98,97,85,29.68,29.62,26,13,26,0.00
2013-8-15,68,62,58,63,61,58,98,95,83,29.71,29.62,24,10,24,0.00
2013-8-16,59,58,57,58,58,57,98,98,98,29.71,29.68,26,7,26,0.00
2013-8-17,65,60,57,60,58,56,98,93,75,29.74,29.59,27,12,27,0.00
2013-8-18,72,62,57,64,58,56,98,87,66,29.62,29.47,68,8,68,0.00
2013-8-19,68,62,56,60,57,56,98,86,70,29.62,29.50,30,12,30,0.00
2013-8-20,62,62,62,57,57,57,83,83,83,29.62,29.53,28,10,28,0.00
2013-8-28,70,70,70,54,54,54,56,56,56,29.68,29.68,6,6,6,0.00
2013-8-29,65,62,61,61,61,60,98,97,84,29.74,29.71,23,12,23,0.00
2013-8-30,77,64,58,65,59,57,98,86,57,29.76,29.62,28,11,28,0.00
2013-8-31,67,60,56,59,57,55,98,93,74,29.71,29.59,26,13,26,0.00
2013-9-1,69,62,56,62,58,55,98,89,66,29.71,29.59,24,10,24,0.00
2013-9-2,76,66,60,63,61,59,98,87,60,29.68,29.59,23,9,23,0.00
2013-9-3,73,64,59,62,59,54,98,86,55,29.71,29.62,22,12,22,0.04
2013-9-4,73,64,59,62,60,57,98,87,59,29.74,29.65,23,11,23,0.00
2013-9-5,74,63,58,59,58,55,98,83,54,29.71,29.65,24,11,24,0.00
2013-9-6,92,72,56,60,53,45,98,58,30,29.71,29.50,12,6,12,0.00
2013-9-7,97,70,56,62,55,43,98,63,29,29.53,29.44,24,11,24,0.00
2013-9-8,73,60,54,60,56,54,98,89,60,29.56,29.44,28,12,28,0.00
2013-9-9,75,60,54,60,56,53,98,89,53,29.53,29.41,26,10,26,0.00
2013-9-10,79,64,56,62,58,56,98,81,50,29.59,29.44,23,8,23,0.00
2013-9-11,76,66,60,60,58,55,91,76,50,29.71,29.59,18,6,18,0.00
2013-9-12,74,62,58,62,60,56,98,93,56,29.68,29.59,26,5,26,0.00
2013-9-13,64,58,55,57,56,55,98,94,76,29.62,29.47,31,12,31,0.04
2013-9-14,66,58,55,58,56,54,98,92,71,29.56,29.47,31,15,31,0.00
2013-9-15,72,63,56,61,56,53,98,81,53,29.59,29.53,25,12,25,0.00
2013-9-16,72,61,57,60,58,54,98,89,59,29.62,29.50,26,8,26,0.00
2013-9-17,69,63,56,57,53,50,94,71,52,29.62,29.56,34,13,34,0.00
2013-9-18,84,63,54,58,52,48,94,70,32,29.65,29.53,20,8,20,0.00
2013-9-19,90,63,53,58,52,48,96,72,34,29.56,29.44,25,9,25,0.00
2013-9-20,76,61,54,63,57,52,98,89,57,29.59,29.47,21,8,21,0.00
2013-9-21,72,62,56,63,58,55,98,87,58,29.62,29.53,17,6,17,0.67
2013-9-22,77,62,54,60,54,49,98,79,45,29.71,29.62,26,7,26,0.00
2013-9-23,89,68,56,60,56,52,98,69,36,29.74,29.62,19,4,19,0.00
2013-9-24,70,60,57,58,55,50,92,82,58,29.71,29.62,33,10,33,0.00
2013-9-25,67,60,54,52,48,44,91,66,48,29.65,29.53,30,13,30,0.04
2013-9-26,75,61,53,48,43,38,74,53,31,29.71,29.56,19,8,19,0.00
2013-9-27,87,66,54,51,42,17,85,46,11,29.79,29.71,18,7,18,0.00
2013-9-28,86,64,54,58,51,42,98,69,31,29.79,29.71,23,6,23,0.00
2013-9-29,79,64,55,65,59,54,98,85,50,29.82,29.76,16,5,16,0.00
2013-9-30,73,65,56,64,62,46,98,89,67,29.80,29.68,18,5,18,0.00
2013-10-1,75,61,54,53,50,46,98,72,42,29.71,29.62,18,8,18,0.00
2013-10-2,72,59,52,53,48,43,96,70,44,29.74,29.65,21,8,21,0.00
2013-10-3,74,63,52,46,40,32,77,47,26,29.79,29.65,32,9,32,0.00
2013-10-4,80,71,63,33,12,-20,29,16,2,29.79,29.68,30,10,30,0.00
2013-10-5,96,74,60,43,11,-20,51,18,2,29.85,29.76,13,4,13,0.00
2013-10-6,97,71,55,48,16,-20,54,20,2,29.79,29.65,14,4,14,0.00
2013-10-7,89,64,54,51,41,-6,88,48,5,29.68,29.56,24,8,24,0.00
2013-10-8,71,58,51,52,49,44,94,76,43,29.62,29.41,20,8,20,0.00
2013-10-9,74,58,50,50,47,41,95,70,39,29.47,29.32,17,6,17,0.00
2013-10-10,74,57,50,52,49,47,98,79,44,29.74,29.47,19,7,19,0.00
2013-10-11,70,54,50,52,49,47,98,86,50,29.82,29.71,22,8,22,0.00
2013-10-12,62,53,48,51,49,47,98,85,62,29.76,29.65,26,8,26,0.00
2013-10-13,78,59,50,57,49,41,98,75,31,29.79,29.68,17,7,17,0.00
2013-10-14,82,64,50,53,44,35,95,55,22,29.82,29.71,15,4,15,0.00
2013-10-15,84,66,53,51,34,-15,82,39,2,29.76,29.65,18,5,18,0.00
2013-10-16,96,69,53,53,31,-18,91,40,2,29.80,29.68,11,4,11,0.00
2013-10-17,92,62,53,52,41,-4,94,49,3,29.80,29.65,20,3,20,0.00
2013-10-18,67,54,48,54,49,47,98,87,53,29.76,29.68,23,10,23,0.00
2013-10-19,88,57,47,62,50,47,98,82,31,29.79,29.71,23,8,23,0.00
2013-10-20,72,53,47,60,49,47,98,90,52,29.76,29.65,26,10,26,0.00
2013-10-21,64,50,49,56,49,48,98,95,60,29.76,29.65,24,6,24,0.00
2013-10-22,74,52,48,67,50,48,98,93,51,29.79,29.65,22,8,25,0.00
2013-10-23,70,52,48,64,50,47,98,92,51,29.74,29.62,26,6,26,0.00
2013-10-24,63,53,50,50,49,47,98,88,58,29.85,29.71,13,6,13,0.00
2013-10-25,73,57,49,54,50,46,98,80,46,29.88,29.79,16,6,16,0.00
2013-10-26,85,57,49,61,51,47,98,85,38,29.91,29.74,20,8,21,0.00
2013-10-27,53,50,49,51,49,48,98,96,83,29.80,29.44,37,12,37,0.16
2013-10-28,60,53,50,52,48,44,96,83,56,29.59,29.44,39,10,39,0.08
2013-10-29,65,55,50,52,48,42,98,79,47,29.79,29.59,12,5,12,0.08
2013-10-30,73,56,48,56,49,43,98,81,44,29.91,29.79,13,5,13,0.08
2013-10-31,82,58,48,52,47,42,98,70,32,29.91,29.79,17,4,17,0.08
2013-11-1,77,61,51,54,46,42,97,61,34,29.88,29.74,13,4,13,0.08
2013-11-2,61,54,49,54,49,40,98,84,49,29.76,29.65,23,8,25,0.08
2013-11-3,68,55,49,48,42,34,89,63,31,29.79,29.68,13,5,13,0.08
2013-11-4,68,58,46,45,39,33,89,52,34,29.79,29.68,15,5,15,0.08
2013-11-5,78,62,52,49,38,31,84,45,21,29.94,29.79,15,5,15,0.08
2013-11-6,77,62,52,50,40,36,88,48,28,29.97,29.88,12,3,12,0.08
2013-11-7,82,60,53,54,42,35,98,54,31,29.91,29.79,20,4,20,0.00
2013-11-8,79,57,49,59,50,43,98,82,41,29.82,29.68,19,6,20,0.00
2013-11-9,82,57,48,55,50,44,98,82,35,29.79,29.68,18,5,18,0.00
2013-11-10,70,55,50,54,50,48,98,86,51,29.88,29.79,14,5,14,0.00
2013-11-11,71,57,52,54,50,47,96,79,49,29.91,29.82,13,4,13,0.00
2013-11-12,76,61,55,55,50,45,98,69,41,30.00,29.91,15,5,15,0.00
2013-11-13,79,57,52,60,53,50,98,89,45,30.00,29.82,24,7,24,0.00
2013-11-14,61,52,51,56,51,45,98,95,72,29.88,29.62,25,6,25,0.00
2013-11-15,70,54,49,50,47,40,95,78,43,29.62,29.47,25,8,25,0.00
2013-11-16,68,54,48,52,48,42,98,82,43,29.68,29.50,23,8,23,0.00
2013-11-17,64,54,49,51,47,42,98,81,49,29.85,29.68,15,6,15,0.00
2013-11-18,66,53,46,50,47,42,98,83,50,29.91,29.79,13,4,13,0.00
2013-11-19,61,56,52,56,52,47,98,89,71,29.88,29.71,9,2,10,0.37
2013-11-20,63,56,51,60,54,49,98,96,76,29.71,29.56,17,5,17,0.83
2013-11-21,63,56,50,51,35,2,98,54,9,29.74,29.62,28,10,28,0.08
2013-11-22,73,62,57,36,-4,-14,41,9,3,29.79,29.62,26,11,26,0.04
2013-11-23,75,59,49,52,30,-20,95,45,2,29.85,29.71,23,6,23,0.00
2013-11-24,72,55,46,51,45,40,98,73,35,29.97,29.85,10,2,10,0.00
2013-11-25,71,54,46,48,45,40,98,78,37,30.03,29.97,8,3,8,0.00
2013-11-26,66,58,52,44,40,38,74,52,39,29.88,29.79,11,4,11,0.00
2013-11-27,74,56,48,48,44,40,91,66,39,29.79,29.56,10,2,10,0.00
2013-11-28,78,58,50,49,44,37,91,61,33,29.82,29.59,13,4,13,0.00
2013-11-29,77,57,48,53,48,40,98,75,32,29.97,29.82,19,4,19,0.00
2013-11-30,71,54,47,59,49,46,98,85,45,30.03,29.94,14,4,14,0.00
2013-12-1,76,57,48,54,48,39,98,77,36,30.12,29.97,13,4,13,0.00
2013-12-2,63,53,48,55,51,48,98,92,64,30.00,29.74,25,9,25,0.00
2013-12-3,55,50,46,54,36,25,98,59,43,29.74,29.59,30,10,30,0.09
2013-12-4,62,47,40,30,25,21,59,42,24,29.85,29.71,14,4,14,0.00
2013-12-5,61,45,36,32,20,-11,72,43,5,29.91,29.82,10,3,10,0.00
2013-12-6,55,42,38,50,34,29,98,73,38,29.91,29.71,26,3,26,0.45
2013-12-7,51,44,38,47,28,23,98,54,38,30.06,29.74,27,11,27,0.08
2013-12-8,49,40,35,30,22,15,72,49,32,30.15,30.03,20,6,20,0.00
2013-12-9,53,42,33,28,13,-11,60,36,7,30.24,30.12,20,5,20,0.00
2013-12-10,59,46,37,32,28,25,74,52,34,30.21,30.00,10,3,10,0.00
2013-12-11,61,48,39,36,30,26,88,52,29,30.06,29.97,13,4,13,0.00
2013-12-12,67,50,40,48,38,30,98,66,35,30.06,29.97,13,4,13,0.00
2013-12-13,66,51,43,48,44,34,98,80,41,30.15,30.03,11,3,11,0.00
2013-12-14,68,52,42,46,38,32,98,65,34,30.18,30.09,13,3,13,0.00
2013-12-15,67,48,44,42,38,34,89,70,37,30.15,29.97,12,3,12,0.00
2013-12-16,73,57,48,40,36,32,72,48,26,29.97,29.85,8,3,8,0.00
2013-12-17,70,56,48,44,38,33,72,52,38,29.91,29.79,9,2,9,0.00
2013-12-18,57,51,46,50,44,35,95,80,52,29.79,29.53,26,8,26,0.00
2013-12-19,66,52,45,46,34,-10,88,53,7,29.71,29.50,33,7,33,0.26
2013-12-20,65,52,42,47,27,-11,92,46,5,29.76,29.68,12,4,12,0.00
2013-12-21,62,52,44,50,48,44,98,87,60,29.88,29.74,13,5,14,0.00
2013-12-22,72,56,45,55,43,36,98,67,32,30.06,29.88,7,2,7,0.00
2013-12-23,67,54,45,46,40,36,87,61,39,30.15,30.06,10,3,10,0.00
2013-12-24,76,57,46,47,41,35,93,58,32,30.12,29.97,6,2,6,0.00
2013-12-25,71,56,47,44,40,35,84,56,35,30.03,29.94,12,3,12,0.00
2013-12-26,72,56,46,46,39,32,94,57,31,30.03,29.91,9,3,9,0.00
2013-12-27,63,53,46,45,38,35,91,60,44,30.00,29.91,12,3,12,0.00
2013-12-28,72,54,42,42,36,31,79,53,29,29.91,29.79,11,3,11,0.00
2013-12-29,69,58,49,36,17,-12,61,29,4,29.94,29.85,18,4,18,0.00
2013-12-30,70,51,44,50,37,31,98,60,35,30.03,29.91,13,2,13,0.00
2013-12-31,65,48,43,52,46,42,98,91,50,30.03,29.94,7,2,7,0.00
2014-1-2,60,56,51,36,34,33,51,45,37,29.85,29.82,5,2,5,0.00